Hourly Data Report for October 04, 2017

All times are specified in Local Standard Time (LST). Add 1 hour to adjust for Daylight Saving Time where and when it is observed.

PARRY SOUND CCG
ONTARIO

45°20'39.000" N
80°02'39.000" W
176.30 m
6116257
71172
XPC

Download Data

Hourly Data (October 2017)
Hourly Data Report for October 4, 2017
Temp Definition
°C
Dew Point Temp Definition
°C
Rel Hum Definition
%
Wind Dir Definition
10's deg

Wind Spd Definition
km/h
Visibility Definition
km
Stn Press Definition
kPa
Hmdx Definition


Wind Chill Definition


Weather Definition


TIME
00:00 20.8 12.5 59 LegendMM LegendMM   100.10     LegendNANA
01:00 21.1 13.1 60 LegendMM LegendMM   100.09     LegendNANA
02:00 21.4 13.2 60 LegendMM LegendMM   99.99     LegendNANA
03:00 21.4 13.5 61 LegendMM LegendMM   99.94     LegendNANA
04:00 21.5 14.7 65 LegendMM LegendMM   99.90 25   LegendNANA
05:00 21.0 15.2 69 LegendMM LegendMM   99.89 25   LegendNANA
06:00 20.7 15.6 73 LegendMM LegendMM   99.83 25   LegendNANA
07:00 20.9 17.1 79 LegendMM LegendMM   99.82 26   LegendNANA
08:00 20.8 17.3 81 LegendMM LegendMM   99.77 26   LegendNANA
09:00 20.5 17.9 85 LegendMM LegendMM   99.76 26   LegendNANA
10:00 21.1 17.8 81 LegendMM LegendMM   99.59 27   LegendNANA
11:00 20.1 17.7 86 LegendMM LegendMM   99.61 26   LegendNANA
12:00 19.0 17.5 91 LegendMM LegendMM   99.59     LegendNANA
13:00 17.6 16.2 91 LegendMM LegendMM   99.56     LegendNANA
14:00 17.6 15.6 88 LegendMM LegendMM   99.55     LegendNANA
15:00 17.0 14.5 85 LegendMM LegendMM   99.55     LegendNANA
16:00 16.8 13.3 80 LegendMM LegendMM   99.55     LegendNANA
17:00 16.7 12.6 77 LegendMM LegendMM   99.60     LegendNANA
18:00 16.4 10.3 67 LegendMM LegendMM   99.64     LegendNANA
19:00 16.2 10.2 68 LegendMM LegendMM   99.71     LegendNANA
20:00 15.9 9.5 66 LegendMM LegendMM   99.74     LegendNANA
21:00 15.3 9.5 68 LegendMM LegendMM   99.78     LegendNANA
22:00 15.0 9.6 70 LegendMM LegendMM   99.79     LegendNANA
23:00 14.6 9.6 72 LegendMM LegendMM   99.79     LegendNANA

Notes on Data Quality.

Legend

  • E = Estimated
  • M = Missing
  • NA = Not Available
  • ‡ = Partner data that is not subject to review by the National Climate Archives
Date modified: